Location: Amsterdam
(30.7274°N, 84.4357°W)
Time: 23:55:52
(UTC+00:00)

Tiros 1 despin weight - Pass Details

Date: 26 February 2026
Orbit: 556 x 593 km, 48.2° (Epoch: 9 March)

Event Time Altitude Azimuth Distance (km) Brightness Sun altitude
Rises 01:33:49 0° 289° (WNW) 2,727 ? -26.6°
Reaches altitude 10° 01:36:54 10° 265° (W) 1,832 ? -27.2°
Maximum altitude 01:39:13 15° 231° (SW) 1,556 ? -27.7°
Enters shadow 01:40:59 12° 204° (SSW) 1,719 ? -28.1°
Drops below altitude 10° 01:41:33 10° 197° (SSW) 1,833 - -28.2°
Sets 01:44:39 0° 173° (S) 2,730 - -28.9°
